Flag for Germany Weather past 2 weeks in Rendsburg, Schleswig-Holstein, Germany

41 °F

Passing clouds.

Feels Like: 33 °F
Forecast: 42 / 51 °F
Wind: 14 mph from West

Location: Hohn

Current Time: Dec 1, 2015 at 8:37:41 AM

Latest Report: Dec 1, 2015 at 7:20 AM

Visibility: N/A

Pressure: 29.98 "Hg

Humidity: 81%

Dew point: 36 °F

Location of RendsburgLocation

Historic Weather in Rendsburg — Graph


Rendsburg temperature yesterday

Maximum temperature yesterday: 45 °F (at 12:20 PM)
Minimum temperature yesterday: 37 °F (at 12:20 AM)
Average temperature yesterday: 41 °F

Past Weeks' High & Low Weather Summary

High55 °F (Nov 16, 1:20 PM)100% (Nov 17, 8:20 PM)30.12 "Hg (Nov 17, 8:20 PM)
Low27 °F (Nov 23, 8:20 AM)65% (Nov 22, 11:20 PM)29.24 "Hg (Nov 18, 4:20 AM)
Average42 °F87%29.65 "Hg
* Reported Nov 16 7:20 AM — Dec 1 7:20 AM, Rendsburg, Weather by CustomWeather, © 2015

Note: Actual official high and low records may vary slightly from our data, if they occured in-between our weather recording intervals... More about our weather records


Rendsburg weather history for previous 24 hours

Time TempWeatherWind HumidityBarometerVisibility
7:20 AM
Tue, Dec 1
41 °FPassing clouds.14 mph81%29.98 "HgN/A
6:20 AM43 °FPassing clouds.16 mph76%29.95 "HgN/A
5:20 AM41 °FPassing clouds.9 mph81%29.92 "HgN/A
4:20 AM39 °FPassing clouds.8 mph87%29.89 "HgN/A
3:20 AM41 °FPassing clouds.9 mph81%29.83 "HgN/A
2:20 AM39 °FPassing clouds.8 mph93%29.80 "HgN/A
1:20 AM41 °FPassing clouds.13 mph93%29.77 "HgN/A
12:20 AM39 °FPassing clouds.8 mph100%29.74 "Hg5 mi
11:20 PM
Mon, Nov 30
37 °FFog.6 mph93%29.68 "Hg3 mi
10:20 PM37 °FFog.5 mph93%29.68 "Hg3 mi
9:20 PM37 °FPartly cloudy.1 mph93%29.65 "Hg5 mi
8:45 PM37 °FMostly cloudy.5 mph93%29.65 "Hg6 mi
8:20 PM37 °FPassing clouds.3 mph93%29.62 "HgN/A
7:50 PM37 °FLight rain. Partly cloudy.6 mph93%29.65 "HgN/A
7:20 PM37 °FLight rain. Partly cloudy.9 mph93%29.65 "HgN/A
6:20 PM39 °FLight rain. Partly cloudy.12 mph93%29.68 "Hg5 mi
5:20 PM41 °FLight rain. Partly cloudy.12 mph87%29.68 "Hg5 mi
4:20 PM41 °FLight rain. Passing clouds.13 mph93%29.71 "Hg4 mi
3:20 PM43 °FPartly sunny.16 mph87%29.71 "Hg5 mi
3:03 PM43 °FBroken clouds.14 mph87%29.74 "Hg5 mi
2:50 PM43 °FLight rain. Fog.15 mph87%29.74 "Hg2 mi
2:20 PM41 °FLight rain. Partly sunny.18 mph93%29.74 "Hg4 mi
1:20 PM43 °FSprinkles. Partly sunny.16 mph81%29.77 "Hg4 mi
12:52 PM43 °FSprinkles. Fog.25 mph81%29.77 "Hg3 mi
12:20 PM45 °FBroken clouds.15 mph71%29.77 "HgN/A
11:20 AM43 °FBroken clouds.24 mph76%29.77 "HgN/A
10:20 AM41 °FScattered clouds.20 mph81%29.77 "HgN/A
9:54 AM43 °FSnow flurries. Scattered clouds.21 mph71%29.77 "Hg6 mi
9:20 AM41 °FScattered clouds.13 mph76%29.74 "HgN/A
8:20 AM41 °FBroken clouds.26 mph70%29.74 "HgN/A
8:01 AM41 °FRain showers. Passing clouds.24 mph76%29.71 "HgN/A
Weather by CustomWeather, © 2015

See weather overviewHow to use our weather pages